Uranium City, Saskatchewan

11:46 PM CST on November 17, 2017 (GMT -0600)
Uranium City

Weather History for CWDC - December, 2013

Change the Weather History Date:

Sunday, December 15, 2013

  Actual Average Record
Temperature  
Mean Temperature -10 °F -  
Max Temperature 3 °F -4 °F - ()
Min Temperature -24 °F -20 °F - ()
Degree Days  
Heating Degree Days 76    
Moisture  
Dew Point -6 °F    
Average Humidity 80    
Maximum Humidity 94    
Minimum Humidity 64    
Precipitation  
Precipitation 0.08 in 0.03 in - ()
Sea Level Pressure  
Sea Level Pressure 29.53 in    
Wind  
Wind Speed 5 mph ()    
Max Wind Speed 10 mph    
Max Gust Speed 18 mph    
T = Trace of Precipitation, MM = Missing Value Source: Averaged Metar Reports

Daily Weather History Graph

Daily Weather History Graph

Search for Another Location

Airport or City:

Trip Planner

Search our weather history database for the weather conditions in past years. The results will help you decide how hot, cold, wet, or windy it might be!

Date:

Astronomy

Dec. 15, 2013 Rise Set
Actual Time 10:07 AM CST 4:10 PM CST
Civil Twilight 9:11 AM CST 5:07 PM CST
Nautical Twilight 8:15 AM CST 6:02 PM CST
Astronomical Twilight 7:24 AM CST 6:53 PM CST
Moon 3:38 PM CST (12/15) 8:04 AM CST (12/15)
Length of Visible Light 7h 55m
Length of Day
6h 03m
Waxing Gibbous, 98% of the Moon is Illuminated
Dec 15
Waxing Gibbous
Dec 17
Full
Dec 25
Last Quarter
Jan 1
New
Jan 7
First Quarter

Hourly Weather History & Observations

Time (CST) Temp. Windchill Dew Point Humidity Pressure Visibility Wind Dir Wind Speed Gust Speed Precip Events Conditions
12:00 AM -12 °F - -18 °F 64% 29.88 in - East 6.9 mph - -  
12:00 AM -11.9 °F -27.3 °F -17.5 °F 76% 29.88 in - East 6.9 mph - 0.01 in   Unknown
1:00 AM -10.8 °F -24.4 °F -16.1 °F 78% 29.82 in - East 5.8 mph - 0.01 in   Unknown
2:00 AM -8.7 °F -24.7 °F -14.1 °F 77% 29.75 in - ESE 8.1 mph - 0.02 in   Unknown
3:00 AM -8 °F - -13 °F 69% 29.70 in - ESE 6.9 mph - -  
3:00 AM -7.8 °F -22.3 °F -12.8 °F 79% 29.70 in - ESE 6.9 mph 18.4 mph 0.01 in   Unknown
4:00 AM -6.5 °F -20.8 °F -11.4 °F 79% 29.66 in - ESE 6.9 mph - N/A   Unknown
5:00 AM -5.4 °F -19.5 °F -9.9 °F 81% 29.62 in - ESE 6.9 mph - 0.01 in   Unknown
6:00 AM -4 °F - -9 °F 70% 29.57 in - SE 5.8 mph - -  
6:00 AM -4.4 °F -16.7 °F -8.7 °F 82% 29.57 in - SE 5.8 mph - N/A   Unknown
7:00 AM -2.4 °F -14.4 °F -6.5 °F 82% 29.54 in - SSE 5.8 mph - N/A   Unknown
8:00 AM -2.0 °F -12.2 °F -6.0 °F 83% 29.50 in - SE 4.6 mph - N/A   Unknown
9:00 AM -1 °F - -5 °F 76% 29.47 in - SSE 5.8 mph - -  
9:00 AM -0.9 °F -12.7 °F -4.7 °F 84% 29.47 in - SSE 5.8 mph - N/A   Unknown
10:00 AM -0.2 °F -13.2 °F -4.4 °F 83% 29.44 in - SE 6.9 mph - N/A   Unknown
11:00 AM 0.3 °F -11.2 °F -4.0 °F 82% 29.42 in - SE 5.8 mph - N/A   Unknown
12:00 PM 0 °F - -4 °F 76% 29.41 in - ESE 5.8 mph - -  
12:00 PM 2.3 °F -8.8 °F -3.8 °F 76% 29.41 in - ESE 5.8 mph - N/A   Unknown
1:00 PM 1.0 °F -10.3 °F -3.3 °F 82% 29.38 in - ESE 5.8 mph - 0.01 in   Unknown
2:00 PM 1.4 °F -8.3 °F -2.9 °F 82% 29.39 in - ESE 4.6 mph - 0.01 in   Unknown
3:00 PM 2 °F - -3 °F 71% 29.40 in - East 4.6 mph - -  
3:00 PM 1.6 °F -8.0 °F -2.7 °F 82% 29.40 in - East 4.6 mph - 0.01 in   Unknown
4:00 PM 1.4 °F -6.2 °F -2.9 °F 82% 29.41 in - East 3.5 mph - 0.01 in   Unknown
5:00 PM 1.9 °F -5.6 °F -2.4 °F 82% 29.43 in - East 3.5 mph - 0.01 in   Unknown
6:00 PM 2 °F - -2 °F 75% 29.45 in - ESE 1.2 mph - -  
6:00 PM 1.9 °F - -2.0 °F 83% 29.45 in - ESE 1.2 mph - N/A   Unknown
7:00 PM 1.6 °F - -1.8 °F 86% 29.47 in - West 2.3 mph - 0.02 in   Unknown
8:00 PM 1.9 °F - 0.5 °F 94% 29.48 in - WSW 2.3 mph - 0.01 in   Unknown
9:00 PM 2 °F - -1 °F 81% 29.48 in - WSW 2.3 mph - -  
9:00 PM 2.1 °F - -0.9 °F 87% 29.48 in - WSW 2.3 mph - 0.03 in   Unknown
10:00 PM 3.0 °F -9.3 °F -0.2 °F 86% 29.49 in - West 6.9 mph - 0.01 in   Unknown
11:00 PM 2.5 °F -13.1 °F -2.7 °F 79% 29.52 in - WNW 10.4 mph - 0.01 in   Unknown